SCP
-0 -0 -0 0 -0 -0 -0 -0 -0 -0 -0 -0 -0 -0 -0 -0 -0 0 0 -0 0 -0 0 0 0 0 0 0 0 0 0 0
-0 -0 -0 -0 -0 -0 -0 -0 -0 0 -0 0 -0 -0 -0 -0 0 0 0 0 0 -0 0 0 0 0 0 0 0 0 0 0
-0 -0 -0 -0 -0 -0 -0 -0 -0 -0 0 -0 -0 -0 -0 -0 0 0 0 0 0 0 0 0 0 0 0 0 0 0 0 0
-0 -0 -0 -0 -0 -0 -0 -0 -0 -0 0 -0 -0 -0 0 0 0 0 0 0 0 0 0 0 0 0 0 0 0 0 0 0
-0 -0 -0 -0 -0 -0 -0 -0 -0 -0 -0 0 -0 0 0 0 0 0 0 0 0 0 0 0 0 0 0 0 0 0 0 0
-0 -0 -0 -0 -0 -0 -0 -0 -0 -0 -0 0 0 0 0 0 0 0 0 0 0 0 0 0 0 0 0 0 0 0 0 0
-0 -0 -0 -0 -0 -0 -0 -0 -0 -0 -0 0 0 0 0 0 0 0 0 0 0 0 0 0 0 0 0 0 0 0 0 0
0 -0 -0 -0 -0 0 0 -0 0 0 -0 -0 0 0 0 0 0 0 0 0 0 0 0 0 0 0 0 0 0 0 0 0
-0 -0 0 0 0 0 0 0 0 -0 0 0 0 0 0 0 0 0 0 0 0 0 0 0 0 0 0 0 0 0 0 0
0 -0 -0 0 0 0 0 0 0 0 0 0 0 0 0 0 0 0 0 0 0 0 0 0 0 0 0 0 0 0 0 0
0 0 -0 -0 -0 0 0 0 0 0 0 0 0 0 0 0 0 0 0 0 0 0 0 0 0 0 0 0 0 0 0 0
0 0 0 0 0 0 0 0 0 0 0 0 0 0 0 0 0 0 0 0 0 0 0 0 0 0 0 0 0 0 0 0
0 0 0 0 0 0 0 0 0 0 0 1 1 0 0 0 0 0 0 0 0 0 0 0 0 0 0 0 0 0 0 0
0 0 0 0 0 0 0 0 1 1 1 1 0 0 0 0 0 0 0 0 0 0 0 0 0 0 0 0 0 0 0 0
0 0 0 1 1 1 1 1 0 0 0 0 0 0 0 0 0 0 0 0 0 0 0 0 0 0 0 0 0 0 0 0
0 1 1 1 1 1 1 0 0 0 0 0 0 0 0 0 0 0 0 0 0 0 0 0 0 0 0 0 0 0 0 0
0 0 0 0 0 0 0 0 0 0 0 0 0 0 0 0 0 0 0 0 0 0 0 0 0 0 0 0 0 0 0 0
0 0 0 0 0 0 0 0 0 0 0 0 0 0 0 0 0 0 0 0 0 0 0 0 0 0 0 0 0 0 0 0
0 0 0 0 0 0 0 0 0 0 0 0 0 0 0 0 0 0 0 0 0 0 0 0 0 0 0 0 0 0 0 0
Wind_Speed_500mb
38 45 48 50 55 60 53 47 43 42 36 39 38 38 42 49 49 44 41 44 43 41 40 37 33 35 35 34 30 24 12 9
39 48 54 56 58 59 54 51 46 39 38 39 40 41 42 49 54 51 45 46 46 43 40 35 39 39 42 37 32 25 15 13
45 49 57 61 62 60 55 51 47 44 39 38 38 39 41 50 58 54 53 54 47 42 40 37 38 44 43 40 33 21 15 18
52 55 59 62 67 65 59 53 47 45 41 39 38 33 38 54 60 60 61 54 49 43 42 42 45 45 46 42 37 29 19 18
49 56 61 64 65 61 60 55 52 49 47 43 45 42 42 47 59 61 54 49 45 47 46 49 49 48 49 45 42 32 27 17
58 62 63 62 60 61 58 56 54 52 51 51 45 47 41 39 52 52 50 48 49 52 52 52 52 51 50 48 47 41 43 30
58 58 54 57 57 58 58 58 57 56 55 58 58 55 51 46 53 53 53 50 50 55 56 52 50 51 52 52 50 50 47 37
56 55 58 58 60 60 61 61 59 58 58 58 59 60 60 58 50 54 57 59 56 56 54 53 56 56 60 49 51 52 44 32
61 59 59 57 57 57 61 62 60 57 59 58 58 54 56 58 58 53 59 62 58 47 51 54 60 58 53 57 50 44 38 34
47 58 54 51 49 52 54 51 49 50 58 54 54 53 53 56 53 52 50 52 58 48 58 55 48 64 67 62 48 37 29 16
22 34 45 47 44 41 42 45 44 42 45 46 46 43 41 46 47 47 45 45 47 53 52 43 54 71 65 53 46 42 32 29
9 16 23 27 31 33 33 33 33 32 32 32 34 31 30 37 41 41 35 39 39 44 38 61 64 64 55 36 39 36 36 30
10 14 17 20 21 23 23 22 23 24 24 24 25 32 33 34 32 35 35 34 37 40 54 58 55 51 45 48 32 31 32 31
14 16 17 19 20 21 20 19 17 15 18 21 29 31 33 34 32 29 26 28 30 32 39 47 47 47 40 25 29 33 32 36
15 15 14 15 16 14 14 20 22 22 23 26 26 27 26 21 17 17 20 22 26 31 36 39 45 38 26 34 33 34 38 38
18 20 19 17 17 19 20 17 18 19 20 20 15 10 9 10 13 16 19 22 23 28 36 33 20 28 33 37 40 50 37 41
17 21 23 22 21 18 17 15 12 11 11 11 10 9 11 13 15 15 17 20 23 21 19 20 28 37 42 41 41 36 39 39
24 25 26 27 27 24 23 21 19 15 14 18 17 16 17 17 16 16 15 14 16 20 21 29 35 38 37 30 35 46 46 46
28 31 33 32 30 29 28 27 24 23 24 23 23 22 21 19 14 11 8 11 14 23 25 19 18 23 35 36 43 52 52 52
Wind_Direction_500mb
186 179 177 178 175 177 182 190 196 200 205 210 214 212 213 213 215 218 229 230 231 230 232 236 228 230 230 231 232 241 223 216
186 183 183 183 183 187 195 200 203 206 210 212 216 220 217 221 220 224 229 230 228 225 227 235 224 228 233 232 236 238 235 252
189 188 191 193 193 197 201 206 210 214 217 217 217 220 221 225 227 230 234 231 229 223 234 239 233 231 237 231 230 222 223 254
197 195 198 201 205 206 206 210 213 216 214 219 216 219 222 227 233 234 239 246 235 224 234 240 239 238 235 232 232 232 230 240
202 204 206 208 210 212 216 218 219 218 216 218 217 220 227 235 238 242 246 251 234 230 236 241 240 234 233 231 234 232 225 229
205 207 210 211 213 215 218 220 221 220 219 218 223 225 230 232 242 250 256 257 237 234 236 239 236 230 231 233 236 242 248 253
212 213 210 212 213 215 217 217 219 219 221 229 229 232 229 226 244 251 256 251 242 240 240 240 237 232 234 235 243 256 252 265
214 209 210 210 212 214 218 220 218 222 225 232 237 240 240 239 243 252 254 254 256 244 241 239 233 231 235 242 251 251 252 259
215 213 213 214 212 213 220 222 221 222 228 237 241 247 245 244 251 256 255 263 278 242 243 237 235 241 236 236 238 240 256 263
213 218 218 217 217 218 221 220 221 221 235 236 244 250 246 244 252 260 266 265 269 252 243 238 245 236 233 238 237 245 255 247
210 212 217 220 220 221 221 225 225 221 231 239 241 251 259 254 255 262 267 272 275 258 256 239 239 235 234 239 238 245 236 266
181 190 201 208 210 214 222 223 219 219 224 228 235 234 243 258 262 267 280 272 263 259 254 245 235 231 231 235 249 250 285 280
144 155 160 167 178 190 197 200 202 208 212 218 224 244 260 266 266 265 263 255 249 250 250 242 237 233 232 239 241 280 276 264
138 139 145 151 161 169 175 182 189 194 210 222 242 256 264 267 265 265 256 243 238 249 247 235 231 232 236 264 280 272 264 263
178 164 159 155 158 159 160 187 203 219 228 239 248 254 264 263 258 240 230 229 237 242 236 223 225 227 256 277 290 276 271 271
193 177 163 153 151 170 180 203 214 224 234 239 227 231 233 215 218 207 208 213 213 206 207 213 237 283 273 279 288 287 273 275
156 155 148 143 144 156 160 162 168 191 189 167 157 154 159 169 184 188 194 206 201 204 211 263 273 279 279 274 282 277 279 278
130 128 127 132 138 141 140 141 141 137 135 132 141 145 154 159 166 176 190 204 213 253 262 275 285 283 284 275 277 280 281 278
125 125 125 127 129 129 127 124 124 125 123 133 135 139 141 146 173 199 242 275 279 283 284 278 276 274 276 283 284 284 285 281
Wind_Speed_850mb
38 45 48 50 55 60 53 47 43 42 36 39 38 38 42 49 49 44 41 44 43 41 40 37 33 35 35 34 30 24 12 9
39 48 54 56 58 59 54 51 46 39 38 39 40 41 42 49 54 51 45 46 46 43 40 35 39 39 42 37 32 25 15 13
45 49 57 61 62 60 55 51 47 44 39 38 38 39 41 50 58 54 53 54 47 42 40 37 38 44 43 40 33 21 15 18
52 55 59 62 67 65 59 53 47 45 41 39 38 33 38 54 60 60 61 54 49 43 42 42 45 45 46 42 37 29 19 18
49 56 61 64 65 61 60 55 52 49 47 43 45 42 42 47 59 61 54 49 45 47 46 49 49 48 49 45 42 32 27 17
58 62 63 62 60 61 58 56 54 52 51 51 45 47 41 39 52 52 50 48 49 52 52 52 52 51 50 48 47 41 43 30
58 58 54 57 57 58 58 58 57 56 55 58 58 55 51 46 53 53 53 50 50 55 56 52 50 51 52 52 50 50 47 37
56 55 58 58 60 60 61 61 59 58 58 58 59 60 60 58 50 54 57 59 56 56 54 53 56 56 60 49 51 52 44 32
61 59 59 57 57 57 61 62 60 57 59 58 58 54 56 58 58 53 59 62 58 47 51 54 60 58 53 57 50 44 38 34
47 58 54 51 49 52 54 51 49 50 58 54 54 53 53 56 53 52 50 52 58 48 58 55 48 64 67 62 48 37 29 16
22 34 45 47 44 41 42 45 44 42 45 46 46 43 41 46 47 47 45 45 47 53 52 43 54 71 65 53 46 42 32 29
9 16 23 27 31 33 33 33 33 32 32 32 34 31 30 37 41 41 35 39 39 44 38 61 64 64 55 36 39 36 36 30
10 14 17 20 21 23 23 22 23 24 24 24 25 32 33 34 32 35 35 34 37 40 54 58 55 51 45 48 32 31 32 31
14 16 17 19 20 21 20 19 17 15 18 21 29 31 33 34 32 29 26 28 30 32 39 47 47 47 40 25 29 33 32 36
15 15 14 15 16 14 14 20 22 22 23 26 26 27 26 21 17 17 20 22 26 31 36 39 45 38 26 34 33 34 38 38
18 20 19 17 17 19 20 17 18 19 20 20 15 10 9 10 13 16 19 22 23 28 36 33 20 28 33 37 40 50 37 41
17 21 23 22 21 18 17 15 12 11 11 11 10 9 11 13 15 15 17 20 23 21 19 20 28 37 42 41 41 36 39 39
24 25 26 27 27 24 23 21 19 15 14 18 17 16 17 17 16 16 15 14 16 20 21 29 35 38 37 30 35 46 46 46
28 31 33 32 30 29 28 27 24 23 24 23 23 22 21 19 14 11 8 11 14 23 25 19 18 23 35 36 43 52 52 52
Wind_Direction_850mb
186 179 177 178 175 177 182 190 196 200 205 210 214 212 213 213 215 218 229 230 231 230 232 236 228 230 230 231 232 241 223 216
186 183 183 183 183 187 195 200 203 206 210 212 216 220 217 221 220 224 229 230 228 225 227 235 224 228 233 232 236 238 235 252
189 188 191 193 193 197 201 206 210 214 217 217 217 220 221 225 227 230 234 231 229 223 234 239 233 231 237 231 230 222 223 254
197 195 198 201 205 206 206 210 213 216 214 219 216 219 222 227 233 234 239 246 235 224 234 240 239 238 235 232 232 232 230 240
202 204 206 208 210 212 216 218 219 218 216 218 217 220 227 235 238 242 246 251 234 230 236 241 240 234 233 231 234 232 225 229
205 207 210 211 213 215 218 220 221 220 219 218 223 225 230 232 242 250 256 257 237 234 236 239 236 230 231 233 236 242 248 253
212 213 210 212 213 215 217 217 219 219 221 229 229 232 229 226 244 251 256 251 242 240 240 240 237 232 234 235 243 256 252 265
214 209 210 210 212 214 218 220 218 222 225 232 237 240 240 239 243 252 254 254 256 244 241 239 233 231 235 242 251 251 252 259
215 213 213 214 212 213 220 222 221 222 228 237 241 247 245 244 251 256 255 263 278 242 243 237 235 241 236 236 238 240 256 263
213 218 218 217 217 218 221 220 221 221 235 236 244 250 246 244 252 260 266 265 269 252 243 238 245 236 233 238 237 245 255 247
210 212 217 220 220 221 221 225 225 221 231 239 241 251 259 254 255 262 267 272 275 258 256 239 239 235 234 239 238 245 236 266
181 190 201 208 210 214 222 223 219 219 224 228 235 234 243 258 262 267 280 272 263 259 254 245 235 231 231 235 249 250 285 280
144 155 160 167 178 190 197 200 202 208 212 218 224 244 260 266 266 265 263 255 249 250 250 242 237 233 232 239 241 280 276 264
138 139 145 151 161 169 175 182 189 194 210 222 242 256 264 267 265 265 256 243 238 249 247 235 231 232 236 264 280 272 264 263
178 164 159 155 158 159 160 187 203 219 228 239 248 254 264 263 258 240 230 229 237 242 236 223 225 227 256 277 290 276 271 271
193 177 163 153 151 170 180 203 214 224 234 239 227 231 233 215 218 207 208 213 213 206 207 213 237 283 273 279 288 287 273 275
156 155 148 143 144 156 160 162 168 191 189 167 157 154 159 169 184 188 194 206 201 204 211 263 273 279 279 274 282 277 279 278
130 128 127 132 138 141 140 141 141 137 135 132 141 145 154 159 166 176 190 204 213 253 262 275 285 283 284 275 277 280 281 278
125 125 125 127 129 129 127 124 124 125 123 133 135 139 141 146 173 199 242 275 279 283 284 278 276 274 276 283 284 284 285 281